This demonstration page uses our WeatherBlox Daily Observations layout. Learn more.

Left ArrowRight Arrow

Hourly Observations for June 11, 2021

Temp ( °F °C ) Dew Point ( °F °C ) Humidity (%) Winds ( mph kmh ) Pressure ( in mb ) Visibility ( mi km ) Precip ( " mm )
12:15 am 00:15 Clear 80 26.6 70 21 71 71 SSE 20 31 29.62 1003 10 16 N/A
12:35 am 00:35 Clear 79 26.1 70 21.1 74 74 SSE 17 28 29.62 1003 10 16 N/A
12:55 am 00:55 Clear 79 25.9 70 21 74 74 SSE 17 28 29.62 1003 10 16 N/A
1:15 am 01:15 Clear 78 25.8 70 21 75 75 SSE 15 24 29.62 1003 10 16 N/A
1:35 am 01:35 Clear 78 25.6 70 21 76 76 SSE 15 24 29.62 1003 10 16 N/A
1:55 am 01:55 Clear 78 25.3 70 21 77 77 SSE 16 26 29.62 1003 10 16 N/A
2:15 am 02:15 Clear 78 25.3 70 21 77 77 SSE 15 24 29.61 1003 10 16 N/A
2:35 am 02:35 Clear 77 25.1 70 21 78 78 SSE 16 26 29.61 1003 10 16 N/A
2:55 am 02:55 Clear 77 25 70 21.1 79 79 SSE 17 28 29.61 1003 10 16 N/A
3:15 am 03:15 Clear 76 24.7 70 21.1 80 80 SSE 14 22 29.61 1003 10 16 N/A
3:35 am 03:35 Clear 76 24.5 70 21.2 82 82 SSE 15 24 29.61 1003 10 16 N/A
3:55 am 03:55 Clear 76 24.2 70 21.3 84 84 SSE 14 22 29.61 1003 10 16 N/A
4:15 am 04:15 Clear 76 24.2 71 21.5 85 85 SSE 12 19 29.61 1003 10 16 N/A
4:35 am 04:35 Clear 75 24 71 21.6 87 87 S 9 15 29.62 1003 10 16 N/A
4:55 am 04:55 Partly Cloudy 74 23.6 71 21.6 89 89 S 10 17 29.64 1004 7 11 N/A
5:15 am 05:15 Mostly Cloudy 75 23.7 71 21.7 89 89 S 10 17 29.64 1004 7 11 N/A
5:35 am 05:35 Cloudy 75 23.9 71 21.9 89 89 S 14 22 29.64 1004 7 11 N/A
5:55 am 05:55 Cloudy 75 24.1 72 22 88 88 W 10 17 29.66 1004 7 11 N/A
6:15 am 06:15 Mostly Cloudy 75 24 60 15.3 58 58 NNW 21 33 29.67 1005 10 16 N/A
6:35 am 06:35 Partly Cloudy 73 23 51 10.4 45 45 NNW 21 33 29.70 1006 10 16 N/A
6:55 am 06:55 Sunny 71 21.9 52 10.9 50 50 NNW 14 22 29.72 1006 10 16 N/A
7:15 am 07:15 Sunny 70 21.1 52 11.3 54 54 NNW 14 22 29.73 1007 10 16 N/A
7:35 am 07:35 Sunny 70 21.2 53 11.4 54 54 NNW 18 30 29.75 1008 10 16 N/A
7:55 am 07:55 Sunny 71 21.5 53 11.4 53 53 N 22 35 29.76 1008 10 16 N/A
8:15 am 08:15 Sunny 71 21.8 51 10.4 48 48 N 24 39 29.79 1009 10 16 N/A
8:35 am 08:35 Sunny 72 22 50 10 47 47 N 25 41 29.80 1009 10 16 N/A
8:55 am 08:55 Sunny 72 22.1 49 9.5 45 45 N 22 35 29.80 1009 10 16 N/A
9:15 am 09:15 Sunny 73 22.5 50 10 45 45 N 23 37 29.82 1010 10 16 N/A
9:35 am 09:35 Sunny 72 22.4 49 9.6 44 44 N 23 37 29.83 1010 10 16 N/A
9:55 am 09:55 Sunny 73 22.7 51 10.6 46 46 N 24 39 29.84 1010 10 16 N/A
10:15 am 10:15 Sunny 73 22.9 51 10.7 46 46 N 22 35 29.84 1010 10 16 N/A
10:35 am 10:35 Sunny 74 23.1 51 10.4 45 45 N 24 39 29.85 1011 10 16 N/A
10:55 am 10:55 Sunny 74 23.2 50 9.8 43 43 NNE 25 41 29.86 1011 10 16 N/A
11:15 am 11:15 Sunny 74 23.5 50 10 43 43 NNE 24 39 29.86 1011 10 16 N/A
11:35 am 11:35 Sunny 75 23.8 50 10.1 42 42 N 22 35 29.86 1011 10 16 N/A
11:55 am 11:55 Sunny 76 24.4 51 10.6 42 42 N 23 37 29.86 1011 10 16 N/A
12:15 pm 12:15 Sunny 77 24.8 52 10.9 42 42 NNE 21 33 29.85 1011 10 16 N/A
12:35 pm 12:35 Sunny 78 25.3 52 11.1 41 41 NNE 20 31 29.86 1011 10 16 N/A
12:55 pm 12:55 Sunny 78 25.3 52 10.9 40 40 N 18 30 29.86 1011 10 16 N/A
1:15 pm 13:15 Sunny 79 25.9 52 11.1 40 40 N 15 24 29.85 1011 10 16 N/A
1:35 pm 13:35 undefined N/A N/A N/A undefined N/A N/A N/A N/A
1:55 pm 13:55 undefined N/A N/A N/A undefined N/A N/A N/A N/A
2:15 pm 14:15 undefined N/A N/A N/A undefined N/A N/A N/A N/A
2:35 pm 14:35 undefined N/A N/A N/A undefined N/A N/A N/A N/A
2:55 pm 14:55 Sunny with Thunderstorms 81 27.4 50 9.8 33 33 N 13 20 29.83 1010 N/A 0.03 0.76
3:15 pm 15:15 Sunny 82 27.6 48 9 31 31 NNE 16 26 29.83 1010 10 16 N/A
3:35 pm 15:35 Sunny 82 28 50 9.8 32 32 N 10 17 29.83 1010 10 16 N/A
3:55 pm 15:55 Sunny 83 28.2 49 9.2 30 30 NNE 10 17 29.82 1010 10 16 N/A
4:15 pm 16:15 Sunny 83 28.4 49 9.2 30 30 NNE 14 22 29.82 1010 10 16 N/A
4:35 pm 16:35 Sunny 83 28.3 50 9.8 31 31 NE 10 17 29.83 1010 10 16 N/A
4:55 pm 16:55 Sunny 83 28.3 48 8.7 29 29 NNE 13 20 29.83 1010 10 16 N/A
5:15 pm 17:15 Sunny 83 28.5 47 8.5 28 28 NNE 9 15 29.83 1010 10 16 N/A
5:35 pm 17:35 Sunny 83 28.3 46 8 28 28 NE 10 17 29.83 1010 10 16 N/A
5:55 pm 17:55 Sunny 83 28.4 47 8.3 28 28 NE 9 15 29.83 1010 10 16 N/A
6:15 pm 18:15 Sunny 82 27.9 46 7.7 28 28 NNE 8 13 29.84 1010 10 16 N/A
6:35 pm 18:35 Sunny 82 27.6 47 8.1 29 29 NNE 9 15 29.83 1010 10 16 N/A
6:55 pm 18:55 Sunny 82 27.5 46 8 29 29 NE 7 11 29.83 1010 10 16 N/A
7:15 pm 19:15 Sunny 81 27.1 46 7.8 30 30 NNE 6 9 29.84 1011 10 16 N/A
7:35 pm 19:35 Sunny 80 26.5 47 8.5 32 32 NNE 8 13 29.85 1011 10 16 N/A
7:55 pm 19:55 Sunny 78 25.7 48 9 35 35 NE 6 9 29.85 1011 10 16 N/A
8:15 pm 20:15 Sunny 76 24.5 50 9.9 40 40 NNE 5 7 29.86 1011 10 16 N/A
8:35 pm 20:35 Sunny 74 23.5 50 10.2 43 43 N 6 9 29.88 1012 10 16 N/A
8:55 pm 20:55 Sunny 72 22 52 11.3 51 51 N 5 7 29.91 1013 10 16 N/A
9:15 pm 21:15 Clear 69 20.5 53 11.6 57 57 NNE 6 9 29.93 1013 10 16 N/A
9:35 pm 21:35 Clear 67 19.2 51 10.6 58 58 NNE 6 9 29.95 1014 10 16 N/A
9:55 pm 21:55 Clear 65 18.2 50 10 59 59 NNE 7 11 29.97 1015 10 16 N/A
10:15 pm 22:15 Clear 64 17.9 50 10 60 60 NNE 7 11 29.97 1015 10 16 N/A
10:35 pm 22:35 Clear 63 17.1 50 9.8 62 62 NE 7 11 29.99 1015 10 16 N/A
10:55 pm 22:55 Clear 63 17.1 49 9.5 61 61 NE 8 13 30.00 1016 10 16 N/A
11:15 pm 23:15 Clear 62 16.7 49 9.2 61 61 NE 9 15 30.00 1016 10 16 N/A
11:35 pm 23:35 Clear 61 16 48 9.1 64 64 NE 6 9 30.01 1016 10 16 N/A
11:55 pm 23:55 Clear 60 15.5 48 9 65 65 NE 7 11 30.01 1016 10 16 N/A

Powered by AerisWeather